Погода в Боровичи

Погода в Боровичи : погода сейчас, прогноз погоды и архив. Всё, что Вы хотите узнать о погоде в Боровичи!

Поиск расширенной информации на нашем сайте:

Другие новости

Новости СМИ2

Главная страница сайта

Новости сайта

03.07.2017

Напоминаем, что на нашем специализированном сайте Метеоцентр.Азия вы можете получить высокодетализированные автоматические прогнозы погоды по пунктам России, СНГ и мира в авиационном формате (включающие направление и скорость ветра, видимость, явления погоды, количество и форму облачности, нижнюю и верхнюю границу облачности).

Рекомендуем: Поставка запчастей КамАЗ. Смотреть спецпредложение на запчасти камаз

Погода в Боровичи - сегодня

Время (UTC), дата Ветер
(°,м/с) 
Видим.   Явления Облачность Т
(°С)
Тd
(°С)
f(%) Тe
(°С)
Pmin
(гПа)
dP
(гПа)
Po
(мм)
O2
(г/м3)
Тmin Tmax R s Состояние
почвы
15 10.12.17 150 (ЮВ) 3{10}  10 км  слаб. ливневой снег  10/10 360 м кучево-дожд. 
[Cb calv]
+0.5 -0.7 92 -1  1004  -0.5  745  300      0.5     
18 10.12.17 120 (ЮВ) 4000 м  слаб. ливневой снег  10/10 240 м кучево-дожд. 
[Cb calv]
+0.3 -0.3 96 +1  1003.6  -0.4  744  300    +1.3     
21 10.12.17 120 (ЮВ) 20000 м  {ливн. осадки}  10/10 300 м 
[Sc]
+0.8 +0 94 +1  1003.4  -0.1  744  299           
00 11.12.17 120 (ЮВ) 4000 м  дымка{ливн. осадки}  10/10 210 м 
[St]
+0.7 +0.3 97 1002.7  -0.8  744  299           
03 11.12.17 100 (В) 4000 м  слаб. ливневой снег  10/10 240 м кучево-дожд. 
[Cb calv]
+0.3 -0.2 96 +1  1001.2  -1.5  743  299  +0.2       
06 11.12.17 110 (В) 4000 м  слаб. ливневой снег  10/10 210 м кучево-дожд. 
[Cb calv]
+0.5 +0.1 97 +1  1001.4  0.2  743  299  +0.2    равномерный
мокрый или
старый снег
100% 
09 11.12.17 120 (ЮВ) 4000 м  слаб. ливневой дождь  10/10 240 м кучево-дожд. 
[Cb calv]
+1.6 +1 96 +2  1002.1  0.7  743  298           
12 11.12.17 120 (ЮВ) 4000 м  слаб. ливневой дождь со снегом  10/10 270 м кучево-дожд. 
[Cb calv]
+1.3 +0.5 94 +2  1002.4  0.3  744  298           
15 11.12.17 120 (ЮВ) 4000 м  слаб. ливневой снег  10/10 300 м кучево-дожд. 
[Cb calv]
+0.8 +0.2 96 +1  1003.3  0.8  744  299         
18 11.12.17 140 (ЮВ) 10 км  слаб. ливневой дождь  10/10 240 м кучево-дожд. 
[Cb calv]
+0.8 +0.2 96 +1  1005  1.7  746  299    +1.9     
21 11.12.17 280 (З) 4000 м  слаб. ливневой снег  10/10 240 м кучево-дожд. 
[Cb calv]
+0.3 -0.1 97 +1  1007.5  2.4  747  301           
00 12.12.17 тихо ()   4000 м  слаб. ливневой снег  10/10 330 м кучево-дожд. 
[Cb calv]
+0.1 -0.3 97 1008.5  748  301           
03 12.12.17 150 (ЮВ) 20000 м  {ливн. осадки}  10/10 300 м 
[Sc]
-0.5 -1.4 94 -1  1009.8  1.2  749  302  -0.7    0.6     
06 12.12.17 150 (ЮВ) 20000 м  {ливн. осадки}  10/10 400 м 
[Sc]
-0.8 -2.6 88 -3  1010.2  0.4  749  303  -0.9    0.3  равномерный
мокрый или
старый снег
100% 
09 12.12.17 140 (ЮВ) 20000 м    10/10 330 м 
[Sc]
-1 -2.8 88 -4  1009  -1.2  748  303           
12 12.12.17 140 (ЮВ) 20000 м    10/10 300 м 
[Sc]
-1.1 -2.8 88 -4  1006.9  -2.1  747  302           
15 12.12.17 140 (ЮВ) 4-10{10}  20000 м    10/10 300 м 
[Sc]
-0.5 -2.1 89 -3  1005  -1.9  745  301           
18 12.12.17 150 (ЮВ) 5-11{13}  20000 м  {ливн. осадки}  10/10 300 м 
[Sc]
+0.6 -0.9 90 -2  1001.5  -3.4  743  299    +0.6  0.0     
21 12.12.17 170 (Ю) 2{11}  10 км  слаб. ливневой дождь  10/10 300 м кучево-дожд. 
[Cb calv]
+1.3 +0.3 93 +1  1000.7  -0.7  742  298           
00 13.12.17 170 (Ю) 10 км  слаб. ливневой дождь  10/10 210 м кучево-дожд. 
[Cb calv]
+1.9 +1 94 1000.3  -0.4  742  297           
03 13.12.17 180 (Ю) 20000 м  {ливн. осадки}  9/9 600 м 
[Sc]
+2.5 +1.2 91 +1  999.3  -0.9  741  296  -0.5       
06 13.12.17 210 (ЮЗ) 20000 м  {ливн. осадки}  8/8 720 м 
[Sc]
+3.1 +1.2 87 +2  999.8  0.5  742  295  +0.6    равномерный
мокрый или
старый снег
100% 
09 13.12.17 220 (ЮЗ) 3{10}  20000 м    9/9 1110 м средняя 
[Sc|Ac trans]
+3.2 -0.8 75 +2  1001.2  1.4  743  296           
12 13.12.17 250 (З) 20000 м  {ливн. осадки}  9/4 600 м средняя 
[Sc|Ac trans]
+2.3 -0.8 80 +2  1004.4  3.2  745  298           
15 13.12.17 260 (З) 20000 м  {ливн. осадки}  3/3 1000 м 
[Sc]
+0 -2.6 83 +1  1007.7  3.1  747  301      0.0     
Время (UTC), дата Ветер
(°,м/с) 
Видим.   Явления Облачность Т
(°С)
Тd
(°С)
f(%) Тe
(°С)
Pmin
(гПа)
dP
(гПа)
Po
(мм)
O2
(г/м3)
Тmin Tmax R s Состояние
почвы

Для получения пояснительной информации подведите курсор к названию столбца.

ПОГОДА в Боровичи - архив

Всё, что Вы хотите узнать о погоде в Боровичи - удобно и подробно!

Выберите нужную дату (начиная с 1 января 2015* года) и нажмите кнопку "Найти".
Будут отображены архивные сводки погоды по пункту Боровичи, начиная с указанной даты.


Отображать данные в формате CSV (для использования в таблицах Excel)


Внимание! Наш архив погоды предназначен исключительно для личного некоммерческого использования в познавательных целях. Если Вам необходимы официальные справки о состоянии погоды (для производственных, юридических, коммерческих и т.п. целей), обращайтесь в органы Росгидромета.

*Примечание: данная дата относится к архиву по метеостанциям СССР (Россия, СНГ, Балтия).
Архив по метеостанциям Зарубежной Европы и Азии (кроме Китая) хранится 10 дней, по другим регионам земного шара (Китай, Африка, Америка, Австралия, Океания) - 1 день.

Боровичи - район местоположения метеостанции


Название, широта, долгота, высота метеостанции:
Боровичи 58.4°ш. 33.9°д. 89 м над ур. моря [Российская Федерация]

Дополнительная информация

В oтличие oт бoльшинства пoгoдных сайтoв мы публикуем пoдрoбную метеoинфoрмацию в детальнoм прoфессиoнальнoм фoрмате.

Характеристики температуры и влажнoсти вoздуха измеряются на высoте 2 м в тени вдали oт зданий и деревьев.
Скoрoсть ветра измеряется на высoте 10 м (на урoвне рoста челoвека скoрoсть ветра ниже в 1.5-2 раза). Если метеoстанция нахoдится в гoрoде или в лесу, тo скoрoсть ветра занижена на 2-4 м/с пo сравнению с oткрытым местoм. Скoрoсть ветра над акватoриями крупных рек и oзёр, а также на вершинах хoлмoв на 2-5 м/с выше, чем в oбычных услoвиях.
Атмoсфернoе давление в разных тoчках местнoсти мoжет значительнo oтличаться oт давления на метеoстанции, в зависимoсти oт услoвий рельефа (при пoдъёме на 10 м давление пoнижается примернo на 1 мм рт.ст.).